Show Low, AZ

3:15 PM MST on May 24, 2017 (GMT -0700)
Show Low Municipal

Weather History for KSOW - March, 2014

Change the Weather History Date:

Monday, March 10, 2014

  Actual Average Record
Temperature  
Mean Temperature 43 °F -  
Max Temperature 60 °F 53 °F 77 °F (1989)
Min Temperature 26 °F 31 °F 17 °F (2012)
Degree Days  
Heating Degree Days 22    
Moisture  
Dew Point 17 °F    
Average Humidity 39    
Maximum Humidity 74    
Minimum Humidity 16    
Precipitation  
Precipitation 0.00 in - - ()
Sea Level Pressure  
Sea Level Pressure 30.19 in    
Wind  
Wind Speed 7 mph (SSW)    
Max Wind Speed 16 mph    
Max Gust Speed 22 mph    
Visibility 10 miles    
Events      
Averages and records for this station are not official NWS values.
T = Trace of Precipitation, MM = Missing Value Source: NWS Daily Summary

Daily Weather History Graph

Daily Weather History Graph

Search for Another Location

Airport or City:

Trip Planner

Search our weather history database for the weather conditions in past years. The results will help you decide how hot, cold, wet, or windy it might be!

Date:

Astronomy

Mar. 10, 2014 Rise Set
Actual Time 6:37 AM MST 6:23 PM MST
Civil Twilight 6:12 AM MST 6:48 PM MST
Nautical Twilight 5:43 AM MST 7:17 PM MST
Astronomical Twilight 5:13 AM MST 7:47 PM MST
Moon 1:20 PM MST (3/10) 2:41 AM MST (3/10)
Length of Visible Light 12h 36m
Length of Day
11h 46m
Waxing Gibbous, 71% of the Moon is Illuminated
Mar 10
Waxing Gibbous
Mar 16
Full
Mar 23
Last Quarter
Mar 30
New
Apr 7
First Quarter

Hourly Weather History & Observations

Time (MST) Temp. Windchill Dew Point Humidity Pressure Visibility Wind Dir Wind Speed Gust Speed Precip Events Conditions
12:15 AM 32.0 °F - 17.6 °F 55% 30.32 in 10.0 mi Calm Calm - N/A   Clear
12:35 AM 30.2 °F - 19.4 °F 64% 30.31 in 10.0 mi Calm Calm - N/A   Clear
12:55 AM 30.2 °F 25.4 °F 19.4 °F 64% 30.30 in 10.0 mi East 4.6 mph - N/A   Clear
1:15 AM 32.0 °F 26.4 °F 17.6 °F 55% 30.29 in 10.0 mi East 5.8 mph - N/A   Clear
1:35 AM 30.2 °F - 17.6 °F 60% 30.29 in 10.0 mi Calm Calm - N/A   Clear
1:55 AM 30.2 °F - 17.6 °F 60% 30.28 in 9.0 mi Calm Calm - N/A   Clear
2:15 AM 26.6 °F 22.6 °F 17.6 °F 69% 30.27 in 1.8 mi WSW 3.5 mph - N/A   Haze
2:35 AM 26.6 °F - 19.4 °F 74% 30.27 in 9.0 mi Calm Calm - N/A   Clear
2:55 AM 26.6 °F 20.0 °F 19.4 °F 74% 30.27 in 10.0 mi SSW 5.8 mph - N/A   Clear
3:15 AM 26.6 °F 20.0 °F 17.6 °F 69% 30.25 in 10.0 mi SE 5.8 mph - N/A   Clear
3:35 AM 26.6 °F 21.2 °F 17.6 °F 69% 30.25 in 10.0 mi South 4.6 mph - N/A   Clear
3:55 AM 28.4 °F 24.6 °F 17.6 °F 64% 30.24 in 10.0 mi South 3.5 mph - N/A   Clear
4:15 AM 28.4 °F 23.3 °F 17.6 °F 64% 30.23 in 10.0 mi South 4.6 mph - N/A   Clear
4:35 AM 26.6 °F 20.0 °F 17.6 °F 69% 30.23 in 10.0 mi South 5.8 mph - N/A   Clear
4:55 AM 26.6 °F 19.1 °F 17.6 °F 69% 30.23 in 10.0 mi South 6.9 mph - N/A   Clear
5:15 AM 26.6 °F 21.2 °F 17.6 °F 69% 30.23 in 10.0 mi South 4.6 mph - N/A   Clear
5:35 AM 28.4 °F 24.6 °F 15.8 °F 59% 30.23 in 10.0 mi SSE 3.5 mph - N/A   Clear
5:55 AM 26.6 °F 20.0 °F 15.8 °F 64% 30.23 in 4.0 mi SSW 5.8 mph - N/A   Haze
6:15 AM 28.4 °F 22.2 °F 15.8 °F 59% 30.23 in 2.0 mi SSW 5.8 mph - N/A   Haze
6:35 AM 30.2 °F 23.4 °F 15.8 °F 55% 30.23 in 10.0 mi South 6.9 mph - N/A   Clear
6:55 AM 30.2 °F 23.4 °F 15.8 °F 55% 30.24 in 6.0 mi South 6.9 mph - N/A   Haze
7:15 AM 32.0 °F 26.4 °F 15.8 °F 51% 30.24 in 10.0 mi SSW 5.8 mph - N/A   Clear
7:35 AM 35.6 °F 31.7 °F 17.6 °F 48% 30.24 in 4.0 mi SW 4.6 mph - N/A   Haze
7:55 AM 39.2 °F 33.0 °F 17.6 °F 42% 30.24 in 10.0 mi South 9.2 mph - N/A   Clear
8:15 AM 41.0 °F 35.2 °F 15.8 °F 36% 30.24 in 10.0 mi South 9.2 mph - N/A   Clear
8:35 AM 44.6 °F 38.8 °F 17.6 °F 34% 30.24 in 10.0 mi South 11.5 mph - N/A   Clear
8:55 AM 46.4 °F 40.7 °F 19.4 °F 34% 30.24 in 10.0 mi South 12.7 mph - N/A   Clear
9:15 AM 48.2 °F - 17.6 °F 30% 30.24 in 10.0 mi South 12.7 mph - N/A   Clear
9:35 AM 50.0 °F - 17.6 °F 28% 30.23 in 10.0 mi South 10.4 mph - N/A   Clear
9:55 AM 51.8 °F - 17.6 °F 26% 30.22 in 10.0 mi SSW 12.7 mph 17.3 mph N/A   Clear
10:15 AM 53.6 °F - 17.6 °F 24% 30.23 in 10.0 mi SSW 10.4 mph - N/A   Clear
10:35 AM 55.4 °F - 15.8 °F 21% 30.23 in 10.0 mi SW 13.8 mph - N/A   Clear
10:55 AM 55.4 °F - 15.8 °F 21% 30.23 in 10.0 mi SW 11.5 mph - N/A   Clear
11:15 AM 55.4 °F - 15.8 °F 21% 30.23 in 10.0 mi SW 12.7 mph - N/A   Clear
11:35 AM 55.4 °F - 15.8 °F 21% 30.23 in 10.0 mi WSW 13.8 mph - N/A   Clear
11:55 AM 57.2 °F - 14.0 °F 18% 30.22 in 10.0 mi SW 9.2 mph - N/A   Clear
12:15 PM 57.2 °F - 12.2 °F 17% 30.21 in 10.0 mi SSW 13.8 mph 17.3 mph N/A   Clear
12:35 PM 57.2 °F - 15.8 °F 20% 30.20 in 10.0 mi SW 12.7 mph 18.4 mph N/A   Clear
12:55 PM 57.2 °F - 17.6 °F 21% 30.19 in 10.0 mi SW 13.8 mph - N/A   Clear
1:15 PM 59.0 °F - 15.8 °F 19% 30.18 in 10.0 mi SSW 10.4 mph 17.3 mph N/A   Clear
1:35 PM 59.0 °F - 15.8 °F 19% 30.17 in 10.0 mi SW 15.0 mph - N/A   Clear
1:55 PM 59.0 °F - 15.8 °F 19% 30.16 in 10.0 mi South 15.0 mph 19.6 mph N/A   Clear
2:15 PM 59.0 °F - 15.8 °F 19% 30.15 in 10.0 mi SW 15.0 mph 18.4 mph N/A   Clear
2:35 PM 59.0 °F - 15.8 °F 19% 30.14 in 10.0 mi SSW 13.8 mph - N/A   Clear
2:55 PM 60.8 °F - 15.8 °F 17% 30.14 in 10.0 mi SSW 16.1 mph 19.6 mph N/A   Clear
3:15 PM 60.8 °F - 15.8 °F 17% 30.14 in 10.0 mi SW 13.8 mph 19.6 mph N/A   Clear
3:35 PM 60.8 °F - 15.8 °F 17% 30.13 in 10.0 mi SW 16.1 mph 21.9 mph N/A   Clear
3:55 PM 60.8 °F - 14.0 °F 16% 30.13 in 10.0 mi WSW 13.8 mph 20.7 mph N/A   Clear
4:15 PM 60.8 °F - 15.8 °F 17% 30.13 in 10.0 mi SW 11.5 mph 16.1 mph N/A   Clear
4:35 PM 59.0 °F - 15.8 °F 19% 30.12 in 10.0 mi SW 15.0 mph - N/A   Clear
4:55 PM 59.0 °F - 17.6 °F 20% 30.11 in 10.0 mi South 15.0 mph - N/A   Clear
5:15 PM 57.2 °F - 17.6 °F 21% 30.12 in 10.0 mi SSW 12.7 mph - N/A   Clear
5:35 PM 57.2 °F - 19.4 °F 23% 30.12 in 10.0 mi SSW 10.4 mph 17.3 mph N/A   Clear
5:55 PM 55.4 °F - 19.4 °F 25% 30.12 in 10.0 mi SW 13.8 mph - N/A   Clear
6:15 PM 53.6 °F - 19.4 °F 26% 30.11 in 10.0 mi SSW 11.5 mph - N/A   Clear
6:35 PM 50.0 °F - 19.4 °F 30% 30.11 in 10.0 mi SSW 9.2 mph - N/A   Clear
6:55 PM 50.0 °F - 19.4 °F 30% 30.11 in 10.0 mi SSW 10.4 mph - N/A   Clear
7:15 PM 48.2 °F - 19.4 °F 32% 30.12 in 10.0 mi South 10.4 mph - N/A   Clear
7:35 PM 48.2 °F - 17.6 °F 30% 30.11 in 10.0 mi SSW 10.4 mph - N/A   Clear
7:55 PM 46.4 °F 40.7 °F 17.6 °F 32% 30.12 in 10.0 mi South 12.7 mph - N/A   Clear
8:15 PM 44.6 °F 39.2 °F 17.6 °F 34% 30.11 in 10.0 mi South 10.4 mph - N/A   Clear
8:35 PM 44.6 °F 38.8 °F 19.4 °F 37% 30.11 in 10.0 mi South 11.5 mph - N/A   Clear
8:55 PM 42.8 °F 37.0 °F 17.6 °F 36% 30.10 in 10.0 mi South 10.4 mph - N/A   Clear
9:15 PM 42.8 °F 37.5 °F 17.6 °F 36% 30.10 in 10.0 mi South 9.2 mph - N/A   Clear
9:35 PM 41.0 °F 35.8 °F 17.6 °F 39% 30.09 in 10.0 mi SSW 8.1 mph - N/A   Clear
9:55 PM 41.0 °F 39.0 °F 17.6 °F 39% 30.10 in 10.0 mi SSW 3.5 mph - N/A   Clear
10:15 PM 41.0 °F 38.0 °F 17.6 °F 39% 30.10 in 10.0 mi SSW 4.6 mph - N/A   Clear
10:35 PM 39.2 °F 32.5 °F 17.6 °F 42% 30.09 in 10.0 mi South 10.4 mph - N/A   Clear
10:55 PM 37.4 °F 31.4 °F 17.6 °F 45% 30.09 in 10.0 mi South 8.1 mph - N/A   Clear
11:15 PM 37.4 °F 30.8 °F 19.4 °F 48% 30.10 in 10.0 mi SSW 9.2 mph - N/A   Clear
11:35 PM 39.2 °F 30.8 °F 19.4 °F 45% 30.09 in 10.0 mi South 15.0 mph - N/A   Clear
11:55 PM 37.4 °F 28.5 °F 19.4 °F 48% 30.09 in 10.0 mi South 15.0 mph - N/A   Clear